[[{"header":{"parameterUnit":"m.s-1","parameterCategory":1,"la1":30.2991,"la2":30.254,"lo1":-89.0895,"lo2":-89.0444,"dy":0.0017,"dx":0.0017,"nx":28,"ny":28,"refTime":"2024-11-26T09:00:00:Z","depth":0,"parameterNumber":2,"parameterNumberName":"U-component_of_WINDS"},"data":[0,0,0,0,0,0,0,0,0,0,0,0,0,0,0,0,0,0,0,0,0,0,0,0,0,0,0,0,0,0,0,0,0,0,0,0,0,0,0,0,0,0,0,0,0,0,0,0,0,0,0,0,0,0,0,0,0,0,3.1952,3.1953,0,3.2034,3.2035,3.2036,3.2009,3.2007,3.2005,3.2004,3.2087,3.209,3.2094,0,0,0,0,0,0,0,0,0,0,0,0,0,3.1771,3.1774,3.1952,3.1953,3.1954,3.2034,3.2035,3.2036,3.2009,3.2007,3.2005,3.2003,3.2085,3.209,3.2095,0,0,0,0,0,0,0,0,0,0,0,0,0,3.1851,3.1776,3.1952,3.195,3.1951,3.2034,3.2035,3.2037,3.201,3.2007,3.2004,3.2002,3.2084,3.209,3.2095,3.2184,0,0,3.2113,3.2116,0,0,0,0,0,0,0,0,3.1847,3.1858,3.195,3.1951,3.1952,3.2009,3.2002,3.2086,3.201,3.1987,3.2004,3.2001,3.2063,3.207,3.2091,3.2188,3.2192,3.2114,3.2117,3.212,3.2121,0,0,0,0,0,0,0,3.1841,3.1854,3.1985,3.1951,3.1952,3.1945,3.1954,3.2018,3.2039,3.1989,3.1987,3.1998,3.2063,3.2086,3.2093,3.2193,3.2113,3.2119,3.2122,3.2124,3.2366,3.2369,0,0,0,0,0,0,3.1835,3.185,3.1982,3.1987,3.1891,3.1951,3.196,3.1993,3.2038,3.2043,3.2,3.1996,3.2077,3.2086,3.2096,3.2202,3.2119,3.2125,3.2128,3.2363,3.2367,3.237,0,0,0,0,0,0,3.1831,3.1847,3.1979,3.1918,3.1934,3.1957,3.1994,3.1996,3.2019,3.2046,3.205,3.2019,3.2076,3.2088,3.2162,3.2205,3.2128,3.2133,3.236,3.2364,3.2369,3.2417,0,0,0,0,0,0,3.1826,3.1846,3.188,3.1919,3.1937,3.2044,3.1996,3.2,3.2029,3.2025,3.2066,3.207,3.2074,3.2154,3.2168,3.2212,3.2137,3.2356,3.2362,3.2367,3.2411,3.2422,3.2432,0,0,0,0,0,3.182,3.1891,3.1882,3.1898,3.1981,3.2047,3.2057,3.2062,3.2033,3.2067,3.2085,3.2068,3.2198,3.2162,3.2178,3.2223,3.2353,3.236,3.2367,3.2407,3.242,3.2431,0,0,0,0,0,0,3.1856,3.1896,3.1887,3.1972,3.2006,3.2042,3.2086,3.2076,3.2118,3.2113,3.2116,3.2125,3.2202,3.222,3.2179,3.2312,3.2272,3.2282,3.2297,3.2309,3.2319,3.2313,3.2142,0,0,0,0,0,3.1874,3.1925,3.1956,3.2029,3.2046,3.2063,3.2092,3.2092,3.2128,3.2142,3.2165,3.22,3.2248,3.228,3.2326,3.2414,3.2422,3.2454,3.2464,3.2472,3.248,3.2527,3.2541,3.2392,3.2392,3.2392,0,0,3.1911,3.1939,3.1971,3.2036,3.2063,3.2115,3.2075,3.2132,3.217,3.215,3.2222,3.224,3.2279,3.2361,3.2398,3.2379,3.2523,3.248,3.2486,3.249,3.2535,3.255,3.2562,3.2396,3.2396,3.2395,0,0,3.2006,3.2033,3.2095,3.2123,3.2164,3.2174,3.219,3.2227,3.2239,3.2311,3.2297,3.2342,3.2426,3.2454,3.2479,3.2585,3.2571,3.26,3.2652,3.2698,3.2709,3.272,3.2756,3.277,3.2608,3.2608,3.2608,0,3.2047,3.2125,3.2129,3.2187,3.2215,3.22,3.2264,3.229,3.2344,3.2364,3.2342,3.2446,3.2471,3.2559,3.2585,3.2606,3.2623,3.2595,3.2708,3.2718,3.2728,3.2763,3.2777,3.2611,3.2611,3.2611,3.261,0,3.2173,3.2227,3.2273,3.2326,3.236,3.242,3.2433,3.2467,3.2464,3.2477,3.2551,3.2581,3.2632,3.2653,3.2651,3.2741,3.2727,3.2706,3.2666,3.2745,3.2778,3.2791,3.2616,3.2615,3.2614,3.2613,0,0,3.2292,3.2346,3.2363,3.2386,3.243,3.2472,3.2531,3.2582,3.2611,3.2649,3.2698,3.2769,3.275,3.2779,3.278,3.2821,3.2901,3.2795,3.2796,3.2813,3.3,3.3015,3.303,3.2893,3.2895,3.2898,3.2997,0,3.2389,3.2494,3.2499,3.2594,3.2644,3.263,3.2682,3.2714,3.2728,3.2772,3.2787,3.2837,3.2809,3.2826,3.2866,3.2883,3.2939,3.2876,3.2938,3.294,3.2927,3.3048,3.3063,3.3155,3.301,3.3012,3.3013,0,3.2516,3.2558,3.2658,3.2695,3.2716,3.2762,3.2809,3.2852,3.2888,3.2895,3.2928,3.2923,3.2983,3.2941,3.3024,3.2981,3.3007,3.3019,3.3023,3.3028,3.2981,3.3055,3.3185,3.3198,3.3034,3.3032,3.3031,0,3.2591,3.2673,3.2743,3.2764,3.2809,3.2842,3.2862,3.2896,3.2926,3.2967,3.2986,3.3034,3.3059,3.3096,3.3104,3.3073,3.3186,3.3145,3.3193,3.3193,3.3216,3.3215,3.3351,3.3235,3.3235,3.3234,3.3234,0,3.2699,3.276,3.2777,3.2821,3.2889,3.2894,3.2962,3.298,3.301,3.3056,3.3047,3.309,3.3099,3.3144,3.315,3.3217,3.3229,3.3236,3.3237,3.3236,3.3235,3.3252,3.3246,3.3238,3.3237,3.3237,3.3236,0,3.2794,3.2808,3.2883,3.292,3.2931,3.2979,3.301,3.3051,3.3064,3.3123,3.3137,3.3157,3.3209,3.3221,3.3283,3.3288,3.3367,3.3362,3.3354,3.3354,3.34,3.3395,3.3552,3.3572,3.3443,3.3445,3.3446,0,3.2861,3.2908,3.2949,3.298,3.3002,3.3051,3.3081,3.3089,3.3121,3.3166,3.3202,3.3253,3.3294,3.3378,3.3398,3.3446,3.3441,3.3493,3.3448,3.3446,3.3441,3.3437,3.3442,3.3501,3.3502,3.3503,3.3504,0,3.2978,3.2982,3.3027,3.3075,3.3112,3.315,3.3186,3.3211,3.3223,3.326,3.3314,3.3346,3.3409,3.346,3.3508,3.3528,3.3518,3.3519,3.3532,3.3531,3.3524,3.3528,3.3376,3.3515,3.3514,3.3513,3.3512,3.3512,3.306,3.3101,3.3137,3.3187,3.3215,3.3249,3.3289,3.3307,3.3352,3.3405,3.3407,3.3465,3.35,3.3562,3.3585,3.3631,3.3614,3.3634,3.3639,3.3643,3.3647,3.3518,3.3639,3.3639,3.3639,3.3639,3.3638,0,3.3175,3.3198,3.3244,3.3295,3.3335,3.3323,3.3362,3.3396,3.3447,3.3481,3.3522,3.3583,3.3633,3.3657,3.3705,3.3737,3.3733,3.3749,3.3746,3.3751,3.3659,3.3642,3.3751,3.3751,3.3751,3.3751,3.3751,3.3751,3.324,3.3308,3.3318,3.34,3.3422,3.3479,3.3502,3.3533,3.356,3.3629,3.367,3.3686,3.3715,3.3766,3.3811,3.3816,3.3834,3.3852,3.3855,3.3769,3.3757,3.3746,3.3731,3.3856,3.3856,3.3943,3.3944,3.3945]},{"header":{"parameterUnit":"m.s-1","parameterCategory":1,"la1":30.2991,"la2":30.254,"lo1":-89.0895,"lo2":-89.0444,"dy":0.0017,"dx":0.0017,"nx":28,"ny":28,"refTime":"2024-11-26T09:00:00:Z","depth":0,"parameterNumber":3,"parameterNumberName":"V-component_of_WINDS"},"data":[0,0,0,0,0,0,0,0,0,0,0,0,0,0,0,0,0,0,0,0,0,0,0,0,0,0,0,0,0,0,0,0,0,0,0,0,0,0,0,0,0,0,0,0,0,0,0,0,0,0,0,0,0,0,0,0,0,0,3.2111,3.2113,0,3.2271,3.2273,3.2275,3.2303,3.2301,3.23,3.2299,3.2459,3.2464,3.247,0,0,0,0,0,0,0,0,0,0,0,0,0,3.1826,3.1831,3.2111,3.2113,3.2115,3.2271,3.2273,3.2275,3.2303,3.2301,3.23,3.2298,3.2457,3.2463,3.247,0,0,0,0,0,0,0,0,0,0,0,0,0,3.1964,3.1833,3.2111,3.2148,3.2153,3.2271,3.2273,3.2276,3.2303,3.2301,3.2299,3.2297,3.2455,3.2463,3.2471,3.2562,0,0,3.2496,3.25,0,0,0,0,0,0,0,0,3.1956,3.1975,3.214,3.2145,3.2151,3.2265,3.2232,3.2372,3.2304,3.2246,3.2299,3.2296,3.2396,3.2409,3.2443,3.257,3.2577,3.2497,3.2502,3.2506,3.2508,0,0,0,0,0,0,0,3.1947,3.1968,3.2174,3.2142,3.2149,3.2155,3.2173,3.2258,3.233,3.2251,3.2253,3.2272,3.2398,3.2435,3.2447,3.2579,3.2497,3.2504,3.2509,3.2512,3.279,3.2792,0,0,0,0,0,0,3.1931,3.196,3.2169,3.2179,3.2047,3.2162,3.2182,3.223,3.2329,3.2342,3.2273,3.2273,3.2422,3.2437,3.2453,3.2567,3.2505,3.2513,3.2518,3.2787,3.279,3.2793,0,0,0,0,0,0,3.1925,3.1949,3.2163,3.207,3.2098,3.2169,3.2224,3.2235,3.2271,3.2346,3.2359,3.2298,3.2421,3.2441,3.2535,3.2573,3.2517,3.2524,3.2784,3.2788,3.2791,3.2796,0,0,0,0,0,0,3.1916,3.1947,3.1983,3.2071,3.2103,3.2244,3.2226,3.2239,3.2286,3.2286,3.2373,3.2385,3.2421,3.2523,3.2544,3.2583,3.2531,3.2781,3.2786,3.279,3.2792,3.2799,3.2805,0,0,0,0,0,3.1906,3.1977,3.1985,3.201,3.2149,3.2246,3.2264,3.2305,3.2289,3.2326,3.2374,3.2382,3.2565,3.2532,3.2556,3.2599,3.2779,3.2785,3.279,3.279,3.2798,3.2804,0,0,0,0,0,0,3.189,3.1989,3.1999,3.21,3.2165,3.225,3.2298,3.2312,3.2381,3.2378,3.2424,3.2444,3.2536,3.2576,3.2538,3.2693,3.2671,3.2681,3.2663,3.2671,3.2677,3.2665,3.2538,0,0,0,0,0,3.1898,3.1969,3.2052,3.2133,3.2165,3.2226,3.2269,3.2295,3.2363,3.239,3.2445,3.251,3.2582,3.2629,3.2699,3.2798,3.2818,3.2839,3.2845,3.285,3.2858,3.2915,3.2925,3.281,3.281,3.281,0,0,3.1916,3.1979,3.2021,3.2131,3.2184,3.2256,3.2248,3.2324,3.2378,3.2401,3.2495,3.2537,3.2612,3.271,3.2755,3.2746,3.2894,3.2857,3.286,3.2866,3.2921,3.2932,3.2942,3.2814,3.2813,3.2813,0,0,3.1985,3.204,3.2114,3.2168,3.2249,3.2289,3.2307,3.2391,3.2421,3.2515,3.2535,3.2598,3.2722,3.2775,3.2818,3.2908,3.2919,3.293,3.2961,3.3016,3.3025,3.3033,3.3066,3.3077,3.2938,3.2938,3.2938,0,3.1997,3.2107,3.215,3.2227,3.2275,3.2301,3.2376,3.2426,3.2525,3.2557,3.2546,3.2702,3.2755,3.2865,3.2888,3.2921,3.2943,3.292,3.302,3.3029,3.3037,3.3069,3.3081,3.2939,3.2939,3.2939,3.2939,0,3.2117,3.2194,3.2244,3.2341,3.2395,3.247,3.2524,3.2573,3.2594,3.2635,3.2731,3.2795,3.288,3.2908,3.2929,3.3022,3.3014,3.3011,3.299,3.3048,3.3079,3.3092,3.294,3.294,3.2939,3.2939,0,0,3.218,3.2302,3.232,3.2365,3.2456,3.2515,3.2592,3.2676,3.2717,3.2784,3.285,3.2954,3.2952,3.3001,3.3028,3.3076,3.3144,3.3067,3.307,3.308,3.3251,3.3254,3.3267,3.3152,3.3154,3.3156,3.3245,0,3.2261,3.24,3.2442,3.2558,3.2629,3.2655,3.2721,3.2784,3.2825,3.289,3.2934,3.3008,3.2999,3.3029,3.3078,3.3126,3.3179,3.312,3.3212,3.3215,3.3193,3.3283,3.3286,3.3367,3.3258,3.326,3.3261,0,3.2374,3.2445,3.2569,3.2653,3.2684,3.2743,3.2824,3.2887,3.2959,3.2985,3.304,3.3063,3.3143,3.3118,3.3229,3.3187,3.3227,3.3257,3.3261,3.3271,3.3242,3.3297,3.3393,3.3406,3.328,3.3279,3.3277,0,3.2408,3.2535,3.2626,3.2664,3.2763,3.2805,3.2848,3.2918,3.2966,3.3036,3.3068,3.3146,3.3189,3.3248,3.3291,3.3269,3.3399,3.3377,3.3422,3.3421,3.3449,3.3446,3.3554,3.3473,3.3473,3.3473,3.3473,0,3.2494,3.2569,3.2643,3.2699,3.2784,3.2831,3.2912,3.2957,3.3019,3.3083,3.311,3.3169,3.3223,3.3289,3.3324,3.3411,3.3429,3.3452,3.3461,3.3451,3.3448,3.3478,3.3473,3.3476,3.3476,3.3475,3.3474,0,3.2547,3.26,3.2701,3.2788,3.2811,3.287,3.2944,3.2998,3.304,3.3121,3.3143,3.3208,3.3288,3.3337,3.3438,3.3461,3.3557,3.3562,3.3533,3.3537,3.358,3.3576,3.3711,3.3731,3.3637,3.3637,3.3638,0,3.2599,3.2657,3.2751,3.2797,3.2841,3.2914,3.2964,3.3013,3.3063,3.315,3.3195,3.3276,3.3345,3.3471,3.3526,3.3603,3.3612,3.3654,3.3623,3.3611,3.3613,3.3609,3.3616,3.3659,3.366,3.366,3.3661,0,3.2685,3.2709,3.2781,3.2862,3.2921,3.2987,3.3053,3.3088,3.3148,3.3203,3.3286,3.3339,3.3443,3.3524,3.3607,3.365,3.3665,3.367,3.3685,3.3675,3.3656,3.3668,3.3548,3.3667,3.3666,3.3666,3.3665,3.3665,3.274,3.2793,3.2868,3.2947,3.3002,3.3063,3.312,3.3169,3.324,3.333,3.3353,3.344,3.3511,3.3623,3.3669,3.3736,3.373,3.3751,3.3757,3.3762,3.3763,3.3645,3.3751,3.3751,3.3751,3.3751,3.3751,0,3.2828,3.2878,3.295,3.3043,3.3105,3.3116,3.3189,3.324,3.3317,3.3382,3.345,3.3545,3.3624,3.3686,3.3767,3.3809,3.3819,3.3829,3.3827,3.3836,3.3763,3.3743,3.382,3.382,3.382,3.382,3.382,3.382,3.2881,3.2973,3.3006,3.3125,3.3174,3.3261,3.3302,3.3358,3.3411,3.3517,3.3583,3.3624,3.3688,3.3774,3.3847,3.3863,3.3892,3.3901,3.3918,3.3849,3.3841,3.3834,3.3815,3.3907,3.3907,3.3986,3.3987,3.3987]}]]